Find Starlink 32799

NORAD ID: 62847 Int'l Des: 2025-019 Owner: SPXS Country: US Constellation: starlink operational
LEOCIRCULAR

当前视图

正在加载3D地球...

About Starlink 32799

Starlink 32799 (NORAD 62847) is a starlink constellation satellite (v2 mini) launched Jan 27, 2025 by SPXS of US. It operates in LEO, CIRCULAR orbit with a mass of 730.00 kg.

即将过境

Passes for default location (London). Set your location on the main map for personalized predictions.

高度历史

Loading altitude history...

两行轨道根数

1 62847U 25019U 26262.89238874 .00009792 00000-0 36482-3 0 9994
2 62847 42.9892 72.0608 0000015 231.4390 128.6461 15.27584806 91952
Epoch: Sep 19, 2026 • Age: 20 hours

当前状态

高度 493.9 km
远地点 / 近地点 N/A
速度 7.62 km/s
星下点 -37.29°S, 110.18°E
发射日期 Jan 27, 2025
运行时间 1.6 years
类型 internet

技术详情

分类 Payload
质量 730.00 kg
干质量 700.00 kg
长度 0.30 m
跨度 29.00 m
形状 ? Box + pan
制造商 SPXS
平台类型 Starlink V2M
阶段状态 In Orbit
所有者/国家 SPXS/US

Most Searched